Location: Observatory
(52.1446°N, 0.4624°W)
Time: 18:59:37
(UTC+01:00)

ISS - Visible Passes

Search period start: 17 May 2025 00:00
Search period end: 27 May 2025 00:00
Orbit: 416 x 419 km, 51.6° (Epoch: 17 May)

Date Brightness Start Highest point End Pass type
(mag) Time Alt. Az. Time Alt. Az. Time Alt. Az.
17 May -3.8 22:50:43 10° W 22:54:03 66° SSW 22:56:06 21° ESE visible
18 May -1.7 00:27:44 10° W 00:29:01 17° WSW 00:29:01 17° WSW visible
18 May -3.8 22:02:43 10° W 22:06:05 77° S 22:09:26 10° ESE visible
18 May -2.9 23:39:35 10° W 23:42:36 31° SSW 23:42:36 31° SSW visible
19 May -3.2 22:51:30 10° W 22:54:42 42° SSW 22:56:12 25° SSE visible
20 May -3.5 22:03:26 10° W 22:06:44 55° SSW 22:09:47 12° ESE visible
20 May -1.8 23:40:44 10° W 23:42:42 17° SW 23:42:42 17° SW visible
21 May -2.3 22:52:23 10° W 22:55:09 24° SSW 22:56:18 20° S visible
22 May -2.7 22:04:10 10° W 22:07:12 32° SSW 22:09:55 12° SE visible
23 May -1.4 22:53:57 10° WSW 22:55:21 12° SW 22:56:28 11° SSW visible
24 May -1.7 22:05:09 10° W 22:07:28 18° SW 22:09:47 10° S visible
